Wetterdaten: Woche 28.08.06 - 03.09.06 (KW35)
Datum Zeit Temperatur Luftfeuchte Luftdruck Niederschlag Windrichtung Wind
28.08.2006 00:00 13,3 C 100 % 1016 hPa 0,0 l/m S-SW 7,8 km/h (2 Bft)
28.08.2006 01:00 13,2 C 100 % 1016 hPa 0,0 l/m S 1,4 km/h (1 Bft)
28.08.2006 02:00 12,7 C 100 % 1016 hPa 0,0 l/m S 0,2 km/h (0 Bft)
28.08.2006 03:00 12,5 C 100 % 1015 hPa 0,0 l/m S 2,9 km/h (1 Bft)
28.08.2006 04:00 12,2 C 100 % 1015 hPa 0,0 l/m S 0,7 km/h (0 Bft)
28.08.2006 05:00 11,8 C 100 % 1014 hPa 0,0 l/m S 7,8 km/h (2 Bft)
28.08.2006 06:00 11,9 C 100 % 1014 hPa 0,0 l/m S-SW 7,6 km/h (2 Bft)
28.08.2006 07:00 12,0 C 100 % 1014 hPa 0,0 l/m S 10,0 km/h (2 Bft)
28.08.2006 08:00 12,8 C 99 % 1014 hPa 0,0 l/m S-SW 9,3 km/h (2 Bft)
28.08.2006 09:00 13,5 C 90 % 1014 hPa 0,0 l/m W-SW 8,8 km/h (2 Bft)
28.08.2006 10:00 13,8 C 89 % 1013 hPa 0,0 l/m S 12,4 km/h (3 Bft)
28.08.2006 11:00 14,8 C 83 % 1012 hPa 0,0 l/m S-SW 10,9 km/h (2 Bft)
28.08.2006 12:00 15,2 C 77 % 1012 hPa 0,0 l/m SW 12,1 km/h (2 Bft)
28.08.2006 13:00 15,8 C 71 % 1011 hPa 0,0 l/m SW 12,7 km/h (3 Bft)
28.08.2006 14:00 14,4 C 75 % 1010 hPa 0,0 l/m W-SW 11,8 km/h (2 Bft)
28.08.2006 15:00 13,6 C 87 % 1010 hPa 0,0 l/m S 9,7 km/h (2 Bft)
28.08.2006 16:00 13,3 C 88 % 1009 hPa 1,0 l/m S-SW 12,6 km/h (3 Bft)
28.08.2006 17:00 12,7 C 93 % 1008 hPa 0,0 l/m S-SW 12,4 km/h (3 Bft)
28.08.2006 18:00 12,3 C 98 % 1007 hPa 1,0 l/m S 13,5 km/h (3 Bft)
28.08.2006 19:00 12,3 C 99 % 1007 hPa 0,0 l/m S-SW 11,0 km/h (2 Bft)
28.08.2006 20:00 12,2 C 99 % 1007 hPa 0,0 l/m S-SW 7,9 km/h (2 Bft)
28.08.2006 21:00 11,4 C 97 % 1008 hPa 6,0 l/m W 6,2 km/h (2 Bft)
28.08.2006 22:00 10,6 C 100 % 1008 hPa 0,0 l/m W-SW 7,7 km/h (2 Bft)
28.08.2006 23:00 10,1 C 98 % 1009 hPa 0,0 l/m W-SW 8,9 km/h (2 Bft)
29.08.2006 00:00 9,7 C 100 % 1010 hPa 0,0 l/m S-SW 8,5 km/h (2 Bft)
29.08.2006 01:00 9,5 C 100 % 1011 hPa 0,0 l/m S-SW 8,0 km/h (2 Bft)
29.08.2006 02:00 9,4 C 100 % 1011 hPa 0,0 l/m S-SW 8,5 km/h (2 Bft)
29.08.2006 03:00 9,6 C 100 % 1011 hPa 0,0 l/m SW 8,5 km/h (2 Bft)
29.08.2006 04:00 9,6 C 100 % 1012 hPa 0,0 l/m W-SW 4,4 km/h (1 Bft)
29.08.2006 05:00 9,6 C 100 % 1012 hPa 0,0 l/m SW 7,5 km/h (2 Bft)
29.08.2006 06:00 9,5 C 99 % 1012 hPa 0,0 l/m W-SW 8,4 km/h (2 Bft)
29.08.2006 07:00 9,6 C 96 % 1012 hPa 0,0 l/m W-SW 7,9 km/h (2 Bft)
29.08.2006 08:00 10,2 C 92 % 1012 hPa 0,0 l/m W-SW 7,0 km/h (2 Bft)
29.08.2006 09:00 10,3 C 93 % 1012 hPa 0,0 l/m SW 6,9 km/h (2 Bft)
29.08.2006 10:00 10,4 C 92 % 1012 hPa 0,0 l/m W-SW 3,9 km/h (1 Bft)
29.08.2006 11:00 12,0 C 86 % 1012 hPa 0,0 l/m S 6,2 km/h (2 Bft)
29.08.2006 12:00 13,4 C 76 % 1011 hPa 0,0 l/m W-SW 11,4 km/h (2 Bft)
29.08.2006 13:00 14,3 C 70 % 1011 hPa 0,0 l/m SW 12,7 km/h (3 Bft)
29.08.2006 14:00 14,6 C 66 % 1010 hPa 0,0 l/m W-SW 12,7 km/h (3 Bft)
29.08.2006 15:00 13,9 C 70 % 1010 hPa 0,0 l/m W-SW 10,0 km/h (2 Bft)
29.08.2006 16:00 13,5 C 67 % 1009 hPa 0,0 l/m SW 11,2 km/h (2 Bft)
29.08.2006 17:00 12,7 C 63 % 1009 hPa 0,0 l/m SW 9,9 km/h (2 Bft)
29.08.2006 18:00 11,5 C 80 % 1009 hPa 0,0 l/m S 11,2 km/h (2 Bft)
29.08.2006 19:00 10,3 C 97 % 1009 hPa 1,0 l/m S-SW 11,6 km/h (2 Bft)
29.08.2006 20:00 9,6 C 99 % 1009 hPa 1,0 l/m S 8,7 km/h (2 Bft)
29.08.2006 21:00 9,0 C 100 % 1010 hPa 2,0 l/m S 9,2 km/h (2 Bft)
29.08.2006 22:00 8,8 C 100 % 1010 hPa 1,0 l/m S 6,4 km/h (2 Bft)
29.08.2006 23:00 8,9 C 100 % 1011 hPa 2,0 l/m SW 4,7 km/h (1 Bft)
30.08.2006 00:00 8,7 C 100 % 1011 hPa 1,0 l/m W-SW 5,4 km/h (1 Bft)
30.08.2006 01:00 8,6 C 100 % 1012 hPa 1,0 l/m S-SW 5,6 km/h (1 Bft)
30.08.2006 02:00 8,6 C 100 % 1012 hPa 0,0 l/m SW 7,5 km/h (2 Bft)
30.08.2006 03:00 8,6 C 100 % 1013 hPa 0,0 l/m W-SW 6,0 km/h (2 Bft)
30.08.2006 04:00 8,6 C 100 % 1013 hPa 0,0 l/m SW 6,7 km/h (2 Bft)
30.08.2006 05:00 8,6 C 100 % 1013 hPa 0,0 l/m W-SW 7,2 km/h (2 Bft)
30.08.2006 06:00 8,3 C 100 % 1014 hPa 0,0 l/m SW 4,6 km/h (1 Bft)
30.08.2006 07:00 8,2 C 100 % 1015 hPa 0,0 l/m S-SW 4,8 km/h (1 Bft)
30.08.2006 08:00 8,8 C 100 % 1016 hPa 0,0 l/m W-SW 3,9 km/h (1 Bft)
30.08.2006 09:00 9,7 C 98 % 1017 hPa 0,0 l/m W-SW 9,0 km/h (2 Bft)
30.08.2006 10:00 11,3 C 86 % 1018 hPa 1,0 l/m W-SW 11,4 km/h (2 Bft)
30.08.2006 11:00 11,3 C 90 % 1018 hPa 0,0 l/m W-SW 9,6 km/h (2 Bft)
30.08.2006 12:00 12,0 C 80 % 1019 hPa 0,0 l/m W-SW 10,3 km/h (2 Bft)
30.08.2006 13:00 12,7 C 77 % 1019 hPa 0,0 l/m SW 12,9 km/h (3 Bft)
30.08.2006 14:00 14,5 C 66 % 1019 hPa 0,0 l/m SW 15,1 km/h (3 Bft)
30.08.2006 15:00 15,0 C 67 % 1019 hPa 0,0 l/m SW 12,4 km/h (3 Bft)
30.08.2006 16:00 15,0 C 61 % 1019 hPa 0,0 l/m W-SW 12,0 km/h (2 Bft)
30.08.2006 17:00 14,3 C 66 % 1020 hPa 0,0 l/m SW 10,3 km/h (2 Bft)
30.08.2006 18:00 12,7 C 77 % 1021 hPa 8,0 l/m W-SW 8,1 km/h (2 Bft)
30.08.2006 19:00 10,8 C 93 % 1021 hPa 0,0 l/m W-SW 6,1 km/h (2 Bft)
30.08.2006 20:00 10,1 C 95 % 1022 hPa 0,0 l/m SW 6,1 km/h (2 Bft)
30.08.2006 21:00 9,9 C 97 % 1022 hPa 0,0 l/m SW 6,7 km/h (2 Bft)
30.08.2006 22:00 9,8 C 98 % 1023 hPa 0,0 l/m W-SW 5,8 km/h (2 Bft)
30.08.2006 23:00 9,7 C 97 % 1023 hPa 0,0 l/m S 6,3 km/h (2 Bft)
31.08.2006 00:00 9,4 C 98 % 1023 hPa 0,0 l/m S 6,1 km/h (2 Bft)
31.08.2006 01:00 9,3 C 98 % 1024 hPa 0,0 l/m S 5,5 km/h (1 Bft)
31.08.2006 02:00 9,0 C 98 % 1024 hPa 0,0 l/m S 5,4 km/h (1 Bft)
31.08.2006 03:00 8,5 C 100 % 1024 hPa 0,0 l/m SO 1,6 km/h (1 Bft)
31.08.2006 04:00 8,4 C 100 % 1024 hPa 0,0 l/m S-SO 1,7 km/h (1 Bft)
31.08.2006 05:00 7,6 C 100 % 1024 hPa 0,0 l/m S 4,5 km/h (1 Bft)
31.08.2006 06:00 6,9 C 100 % 1025 hPa 0,0 l/m S 3,5 km/h (1 Bft)
31.08.2006 07:00 7,1 C 100 % 1025 hPa 0,0 l/m S 6,6 km/h (2 Bft)
31.08.2006 08:00 8,6 C 100 % 1025 hPa 0,0 l/m S 4,0 km/h (1 Bft)
31.08.2006 09:00 10,7 C 100 % 1025 hPa 0,0 l/m S 6,9 km/h (2 Bft)
31.08.2006 10:00 13,0 C 83 % 1025 hPa 0,0 l/m S 8,6 km/h (2 Bft)
31.08.2006 11:00 15,1 C 67 % 1026 hPa 0,0 l/m S 9,5 km/h (2 Bft)
31.08.2006 12:00 15,5 C 62 % 1025 hPa 0,0 l/m S 9,7 km/h (2 Bft)
31.08.2006 13:00 17,2 C 50 % 1025 hPa 0,0 l/m S 9,8 km/h (2 Bft)
31.08.2006 14:00 17,7 C 47 % 1025 hPa 0,0 l/m W 7,1 km/h (2 Bft)
31.08.2006 15:00 18,4 C 46 % 1025 hPa 0,0 l/m W-SW 8,1 km/h (2 Bft)
31.08.2006 16:00 18,4 C 44 % 1024 hPa 0,0 l/m W-SW 6,8 km/h (2 Bft)
31.08.2006 17:00 18,0 C 44 % 1024 hPa 0,0 l/m S 7,2 km/h (2 Bft)
31.08.2006 18:00 18,2 C 46 % 1024 hPa 0,0 l/m S-SW 5,8 km/h (2 Bft)
31.08.2006 19:00 15,6 C 58 % 1023 hPa 0,0 l/m N 0,0 km/h (0 Bft)
31.08.2006 20:00 12,8 C 72 % 1024 hPa 0,0 l/m N 0,0 km/h (0 Bft)
31.08.2006 21:00 11,0 C 81 % 1024 hPa 0,0 l/m N 0,0 km/h (0 Bft)
31.08.2006 22:00 9,8 C 88 % 1024 hPa 0,0 l/m N 0,0 km/h (0 Bft)
31.08.2006 23:00 8,9 C 93 % 1023 hPa 0,0 l/m N 0,0 km/h (0 Bft)
01.09.2006 00:00 8,3 C 96 % 1023 hPa 0,0 l/m N 0,0 km/h (0 Bft)
01.09.2006 01:00 7,7 C 98 % 1023 hPa 0,0 l/m N 0,0 km/h (0 Bft)
01.09.2006 02:00 7,2 C 99 % 1023 hPa 0,0 l/m N 0,0 km/h (0 Bft)
01.09.2006 03:00 6,7 C 100 % 1022 hPa 0,0 l/m N 0,0 km/h (0 Bft)
01.09.2006 04:00 6,2 C 100 % 1022 hPa 0,0 l/m N 0,0 km/h (0 Bft)
01.09.2006 05:00 6,0 C 100 % 1022 hPa 0,0 l/m N 0,0 km/h (0 Bft)
01.09.2006 06:00 5,7 C 100 % 1022 hPa 0,0 l/m N 0,0 km/h (0 Bft)
01.09.2006 07:00 5,7 C 100 % 1021 hPa 0,0 l/m N 0,0 km/h (0 Bft)
01.09.2006 08:00 7,4 C 100 % 1021 hPa 0,0 l/m N 0,0 km/h (0 Bft)
01.09.2006 09:00 10,4 C 98 % 1021 hPa 0,0 l/m O-SO 0,9 km/h (0 Bft)
01.09.2006 10:00 14,6 C 70 % 1021 hPa 0,0 l/m S-SW 6,4 km/h (2 Bft)
01.09.2006 11:00 17,8 C 53 % 1021 hPa 0,0 l/m O 4,1 km/h (1 Bft)
01.09.2006 12:00 19,2 C 45 % 1020 hPa 0,0 l/m S-SW 5,9 km/h (2 Bft)
01.09.2006 13:00 20,9 C 39 % 1020 hPa 0,0 l/m S 4,9 km/h (1 Bft)
01.09.2006 14:00 22,7 C 36 % 1020 hPa 0,0 l/m S 5,9 km/h (2 Bft)
01.09.2006 15:00 23,3 C 34 % 1019 hPa 0,0 l/m S 6,8 km/h (2 Bft)
01.09.2006 16:00 22,9 C 37 % 1019 hPa 0,0 l/m W-SW 4,6 km/h (1 Bft)
01.09.2006 17:00 22,3 C 42 % 1018 hPa 0,0 l/m S 6,4 km/h (2 Bft)
01.09.2006 18:00 22,5 C 46 % 1018 hPa 0,0 l/m S-SW 4,8 km/h (1 Bft)
01.09.2006 19:00 19,4 C 59 % 1018 hPa 0,0 l/m N 0,0 km/h (0 Bft)
01.09.2006 20:00 16,2 C 70 % 1018 hPa 0,0 l/m N 0,0 km/h (0 Bft)
01.09.2006 21:00 14,2 C 76 % 1018 hPa 0,0 l/m N 0,0 km/h (0 Bft)
01.09.2006 22:00 12,9 C 81 % 1018 hPa 0,0 l/m N 0,0 km/h (0 Bft)
01.09.2006 23:00 11,9 C 88 % 1018 hPa 0,0 l/m N 0,0 km/h (0 Bft)
02.09.2006 00:00 11,3 C 93 % 1017 hPa 0,0 l/m N 0,0 km/h (0 Bft)
02.09.2006 01:00 10,7 C 96 % 1017 hPa 0,0 l/m N 0,0 km/h (0 Bft)
02.09.2006 02:00 10,3 C 98 % 1017 hPa 0,0 l/m N 0,0 km/h (0 Bft)
02.09.2006 03:00 10,2 C 99 % 1017 hPa 0,0 l/m N 0,0 km/h (0 Bft)
02.09.2006 04:00 10,2 C 99 % 1017 hPa 0,0 l/m N 0,0 km/h (0 Bft)
02.09.2006 05:00 10,2 C 100 % 1017 hPa 0,0 l/m N 0,0 km/h (0 Bft)
02.09.2006 06:00 10,3 C 100 % 1017 hPa 0,0 l/m N 0,0 km/h (0 Bft)
02.09.2006 07:00 10,5 C 100 % 1017 hPa 0,0 l/m N 0,0 km/h (0 Bft)
02.09.2006 08:00 11,7 C 99 % 1017 hPa 0,0 l/m O-NO 1,9 km/h (1 Bft)
02.09.2006 09:00 14,4 C 89 % 1017 hPa 0,0 l/m O 4,1 km/h (1 Bft)
02.09.2006 10:00 18,1 C 71 % 1017 hPa 0,0 l/m O 6,9 km/h (2 Bft)
02.09.2006 11:00 21,0 C 55 % 1017 hPa 0,0 l/m S 10,4 km/h (2 Bft)
02.09.2006 12:00 22,2 C 51 % 1017 hPa 0,0 l/m S-SW 11,3 km/h (2 Bft)
02.09.2006 13:00 23,1 C 48 % 1016 hPa 0,0 l/m SW 11,5 km/h (2 Bft)
02.09.2006 14:00 22,8 C 52 % 1016 hPa 0,0 l/m S-SW 12,7 km/h (3 Bft)
02.09.2006 15:00 23,3 C 51 % 1016 hPa 0,0 l/m S 10,1 km/h (2 Bft)
02.09.2006 16:00 22,9 C 54 % 1016 hPa 0,0 l/m S 12,6 km/h (3 Bft)
02.09.2006 17:00 21,7 C 59 % 1016 hPa 0,0 l/m S-SW 10,3 km/h (2 Bft)
02.09.2006 18:00 20,8 C 66 % 1016 hPa 0,0 l/m S-SW 7,5 km/h (2 Bft)
02.09.2006 19:00 19,9 C 70 % 1016 hPa 0,0 l/m S-SW 6,8 km/h (2 Bft)
02.09.2006 20:00 19,0 C 73 % 1016 hPa 0,0 l/m S-SW 7,2 km/h (2 Bft)
02.09.2006 21:00 18,3 C 75 % 1017 hPa 0,0 l/m S 4,1 km/h (1 Bft)
02.09.2006 22:00 18,4 C 72 % 1017 hPa 0,0 l/m S-SW 7,1 km/h (2 Bft)
02.09.2006 23:00 18,1 C 74 % 1017 hPa 0,0 l/m S-SW 4,3 km/h (1 Bft)
03.09.2006 00:00 17,2 C 80 % 1017 hPa 0,0 l/m S 8,3 km/h (2 Bft)
03.09.2006 01:00 17,1 C 82 % 1017 hPa 0,0 l/m S 8,3 km/h (2 Bft)
03.09.2006 02:00 17,1 C 81 % 1017 hPa 0,0 l/m S 10,8 km/h (2 Bft)
03.09.2006 03:00 17,6 C 74 % 1018 hPa 0,0 l/m W-SW 8,5 km/h (2 Bft)
03.09.2006 04:00 17,2 C 72 % 1019 hPa 0,0 l/m W-SW 6,0 km/h (2 Bft)
03.09.2006 05:00 15,7 C 87 % 1019 hPa 0,0 l/m S-SW 7,8 km/h (2 Bft)
03.09.2006 06:00 15,2 C 91 % 1018 hPa 0,0 l/m S 10,6 km/h (2 Bft)
03.09.2006 07:00 15,2 C 95 % 1018 hPa 0,0 l/m S 8,2 km/h (2 Bft)
03.09.2006 08:00 16,1 C 90 % 1018 hPa 0,0 l/m S 12,2 km/h (2 Bft)
03.09.2006 09:00 16,7 C 89 % 1019 hPa 0,0 l/m S 12,4 km/h (3 Bft)
03.09.2006 10:00 18,6 C 79 % 1019 hPa 0,0 l/m S 15,3 km/h (3 Bft)
03.09.2006 11:00 19,3 C 71 % 1020 hPa 1,0 l/m S-SW 15,9 km/h (3 Bft)
03.09.2006 12:00 19,2 C 71 % 1020 hPa 0,0 l/m S-SW 14,6 km/h (3 Bft)
03.09.2006 13:00 20,6 C 67 % 1020 hPa 0,0 l/m S 16,5 km/h (3 Bft)
03.09.2006 14:00 20,8 C 68 % 1020 hPa 0,0 l/m SW 15,0 km/h (3 Bft)
03.09.2006 15:00 21,3 C 67 % 1020 hPa 0,0 l/m SW 15,0 km/h (3 Bft)
03.09.2006 16:00 21,6 C 66 % 1020 hPa 0,0 l/m S 16,3 km/h (3 Bft)
03.09.2006 17:00 21,6 C 69 % 1020 hPa 0,0 l/m SW 11,3 km/h (2 Bft)
03.09.2006 18:00 21,5 C 71 % 1020 hPa 0,0 l/m S-SW 8,5 km/h (2 Bft)
03.09.2006 19:00 20,9 C 74 % 1020 hPa 0,0 l/m S 6,2 km/h (2 Bft)
03.09.2006 20:00 19,6 C 80 % 1021 hPa 0,0 l/m S-SW 8,1 km/h (2 Bft)
03.09.2006 21:00 19,3 C 83 % 1021 hPa 0,0 l/m W-SW 9,5 km/h (2 Bft)
03.09.2006 22:00 18,5 C 87 % 1022 hPa 0,0 l/m S 8,8 km/h (2 Bft)
03.09.2006 23:00 18,3 C 91 % 1022 hPa 0,0 l/m S-SW 9,3 km/h (2 Bft)
Min-Datum _ 01.09.06 01.09.06 28.08.06 - - 28.08.06
_ Min-Zeit 06:44 15:29 19:48 - - 00:12
Minimum _ 5,4 C 32 % 1006 hPa - - 0,0 km/h (0 Bft)
Max-Datum _ 02.09.06 28.08.06 31.08.06 30.08.06 - 03.09.06
_ Max-Zeit 15:24 00:20 11:49 18:28 - 14:07
Maximum _ 23,6 C 100 % 1026 hPa 8,0 l/m - 36,7 km/h
SW (5 Bft)
Durchschnitt _ 13,7 C 83 % 1017 hPa #27,0 l/m S 6,9 km/h (2 Bft)

Durchschnitt Minimum Temp.13,2 C
Durchschnitt Maximum Temp.14,1 C